Tracking 32968 objects as of 18-Jan-2026
HD Live streaming from Space Station
objects crossing your sky now

BREEZE-M R/B

Track BREEZE-M R/B now!


NORAD ID: 39123
Int'l Code: 2013-012B
Perigee: 5,431.2 km
Apogee: 34,107.7 km
Inclination: 17.7 °
Period: 701.0 minutes
Semi major axis: 26140 km
RCS: 0.6198 m2 (medium)
Launch date: March 26, 2013
Source: Commonwealth of Independent States (former USSR) (CIS)
Launch site: TYURATAM MISSILE AND SPACE COMPLEX (TTMTR)

Note: This is a ROCKET BODY
Your satellite tracking list
Your tracking list is empty




NASA's NSSDC Master Catalog

Two Line Element Set (TLE):
1 39123U 13012B   26017.08252909 -.00000035  00000-0  00000-0 0  9995
2 39123  17.6632 166.6243 5485082 157.5496 240.7868  2.05415959 96091
Source of the keplerian elements: AFSPC